FW4018 Weather Reports


time (UTC)temp
F
wind
direction
speed
knots
gust
knots
rain 1hr
in
rain 24hr
in
rain mn
in
humidity
%
barometer
mb
20260906114517 92 306 2.6 7.8 0.00 0.00 0.00 31 1010.4
20260906113538 92 324 3.5 9.6 0.00 0.00 0.00 29 1010.5
20260906112517 92 325 3.5 8.7 0.00 0.00 0.00 29 1010.6
20260906111517 92 4 2.6 6.1 0.00 0.00 0.00 30 1010.6
20260906110517 92 331 3.5 8.7 0.00 0.00 0.00 31 1010.8
20260906105517 92 322 2.6 7.0 0.00 0.00 0.00 34 1010.8
20260906104516 92 308 2.6 7.0 0.00 0.00 0.00 33 1010.9
20260906103517 92 318 2.6 6.1 0.00 0.00 0.00 35 1011.0
20260906102516 91 313 1.7 6.1 0.00 0.00 0.00 36 1011.1
20260906101517 90 320 2.6 8.7 0.00 0.00 0.00 35 1011.1
20260906100517 90 335 2.6 4.3 0.00 0.00 0.00 36 1011.2
20260906095536 89 318 2.6 8.7 0.00 0.00 0.00 39 1011.3
20260906094516 89 315 1.7 6.1 0.00 0.00 0.00 39 1011.4
20260906093516 88 354 1.7 6.1 0.00 0.00 0.00 40 1011.4
20260906092536 88 322 5.2 7.0 0.00 0.00 0.00 40 1011.6
20260906091515 87 312 3.5 7.8 0.00 0.00 0.00 41 1011.6
20260906090516 87 304 3.5 7.0 0.00 0.00 0.00 43 1011.7
20260906085516 86 330 2.6 7.0 0.00 0.00 0.00 42 1011.8
20260906084536 85 314 2.6 5.2 0.00 0.00 0.00 43 1011.8
20260906083516 85 327 3.5 7.8 0.00 0.00 0.00 43 1012.0
20260906082516 85 321 3.5 8.7 0.00 0.00 0.00 45 1012.2
20260906081536 84 323 2.6 6.1 0.00 0.00 0.00 47 1012.3
20260906080516 84 302 3.5 7.8 0.00 0.00 0.00 48 1012.4
20260906074515 83 315 3.5 9.6 0.00 0.00 0.00 51 1012.5
20260906073516 82 340 2.6 7.0 0.00 0.00 0.00 52 1012.6
20260906072536 81 321 3.5 8.7 0.00 0.00 0.00 52 1012.8
20260906071516 81 303 1.7 4.3 0.00 0.00 0.00 56 1012.8
20260906070516 80 334 3.5 6.1 0.00 0.00 0.00 56 1012.9
20260906065516 79 323 1.7 7.8 0.00 0.00 0.00 68 1013.0
20260906064516 79 312 1.7 5.2 0.00 0.00 0.00 74 1013.1
20260906063516 78 299 1.7 4.3 0.00 0.00 0.00 76 1013.1
20260906062516 77 317 1.7 4.3 0.00 0.00 0.00 80 1013.1
20260906061516 77 309 1.7 3.5 0.00 0.00 0.00 84 1013.2
20260906060516 76 286 1.7 4.3 0.00 0.00 0.00 87 1013.2
20260906055516 75 301 1.7 6.1 0.00 0.00 0.00 93 1013.3
20260906054516 75 295 0.9 3.5 0.00 0.00 0.00 96 1013.3
20260906053516 74 309 1.7 4.3 0.00 0.00 0.00 97 1013.3
20260906052516 74 306 1.7 3.5 0.00 0.00 0.00 99 1013.3
20260906051516 73 314 1.7 4.3 0.00 0.00 0.00 100 1013.2
20260906050516 73 299 1.7 2.6 0.00 0.00 0.00 100 1013.2
20260906045516 72 319 0.9 1.7 0.00 0.00 0.00 100 1013.2
20260906044516 71 314 0.9 1.7 0.00 0.00 0.00 100 1013.2
20260906043516 70 277 0.0 1.7 0.00 0.00 0.00 100 1013.2
20260906042516 69 253 0.0 0.9 0.00 0.00 0.00 100 1013.3
20260906041536 69 230 0.0 0.9 0.00 0.00 0.00 100 1013.3
20260906040536 68 230 0.0 0.9 0.00 0.00 0.00 100 1013.2
20260906035516 67 232 0.0 0.9 0.00 0.00 0.00 98 1013.3
20260906034516 67 253 0.0 0.0 0.00 0.00 0.00 97 1013.3
20260906033517 67 257 0.0 0.0 0.00 0.00 0.00 97 1013.4
20260906032537 66 244 0.0 0.9 0.00 0.00 0.00 96 1013.3
20260906031516 66 232 0.0 0.9 0.00 0.00 0.00 96 1013.3
20260906030516 66 263 0.0 0.0 0.00 0.00 0.00 95 1013.2
20260906025516 66 264 0.0 0.9 0.00 0.00 0.00 95 1013.2
20260906024516 66 263 0.0 0.9 0.00 0.00 0.00 95 1013.2
20260906023536 66 258 0.0 0.9 0.00 0.00 0.00 94 1013.1
20260906022516 66 257 0.0 0.0 0.00 0.00 0.00 93 1013.1
20260906021517 66 271 0.0 0.0 0.00 0.00 0.00 93 1013.3
20260906020516 66 299 0.0 0.0 0.00 0.00 0.00 93 1013.3
20260906015516 66 293 0.0 0.0 0.00 0.00 0.00 92 1013.3
20260906014516 66 271 0.0 0.0 0.00 0.00 0.00 92 1013.3
20260906013516 66 252 0.0 0.0 0.00 0.00 0.00 91 1013.3
20260906012516 66 0.0 0.0 0.00 0.00 0.00 90 1013.3
20260906011536 67 280 0.0 0.0 0.00 0.00 0.00 90 1013.4
20260906010536 67 303 0.0 0.0 0.00 0.00 0.00 89 1013.4
20260906005516 67 323 0.0 0.0 0.00 0.00 0.00 89 1013.4
20260906004516 67 285 0.0 0.0 0.00 0.00 0.00 88 1013.5
20260906003517 68 329 0.0 0.0 0.00 0.00 0.00 88 1013.5
20260906001517 68 0.0 0.0 0.00 0.00 0.00 88 1013.6
20260906000517 68 0.0 0.0 0.00 0.00 0.00 88 1013.5
20260905235521 69 244 0.0 0.0 0.00 0.00 0.00 88 1013.4
20260905234516 69 254 0.0 0.0 0.00 0.00 0.00 87 1013.4
20260905232516 69 231 0.0 0.9 0.00 0.00 0.00 87 1013.5
20260905231516 69 228 0.0 0.9 0.00 0.00 0.00 87 1013.6
20260905230521 69 226 0.0 0.9 0.00 0.00 0.00 86 1013.5
20260905225516 70 224 0.0 1.7 0.00 0.00 0.00 85 1013.5
20260905224516 70 224 0.0 0.9 0.00 0.00 0.00 84 1013.6
20260905223516 70 236 0.0 1.7 0.00 0.00 0.00 83 1013.5
20260905222516 70 223 0.0 0.9 0.00 0.00 0.00 82 1013.6
20260905221516 70 235 0.0 1.7 0.00 0.00 0.00 82 1013.6
20260905220537 70 239 0.0 0.9 0.00 0.00 0.00 81 1013.6
20260905215516 71 251 0.0 1.7 0.00 0.00 0.00 80 1013.6
20260905214516 71 238 0.0 1.7 0.00 0.00 0.00 80 1013.7
20260905213521 71 243 0.9 3.5 0.00 0.00 0.00 77 1013.7
20260905212516 71 244 0.0 2.6 0.00 0.00 0.00 75 1013.9
20260905211516 71 264 0.0 1.7 0.00 0.00 0.00 74 1013.9
20260905210536 71 249 0.9 1.7 0.00 0.00 0.00 73 1014.0
20260905205541 71 261 0.9 2.6 0.00 0.00 0.00 72 1014.0
20260905204516 71 269 0.0 1.7 0.00 0.00 0.00 70 1014.1
20260905203516 71 238 0.0 1.7 0.00 0.00 0.00 70 1014.2
20260905202537 70 244 0.0 0.9 0.00 0.00 0.00 70 1014.2
20260905201517 71 259 0.0 0.0 0.00 0.00 0.00 69 1014.3
20260905200516 71 283 0.0 0.0 0.00 0.00 0.00 68 1014.3
20260905195516 71 277 0.0 0.0 0.00 0.00 0.00 68 1014.3
20260905194516 71 270 0.0 0.0 0.00 0.00 0.00 66 1014.3
20260905193516 72 270 0.0 0.0 0.00 0.00 0.00 65 1014.4
20260905192538 72 240 0.0 0.9 0.00 0.00 0.00 64 1014.4
20260905191516 73 290 0.0 0.9 0.00 0.00 0.00 63 1014.5
20260905190516 73 294 0.0 0.0 0.00 0.00 0.00 62 1014.4
20260905185516 74 285 0.0 0.9 0.00 0.00 0.00 61 1014.5
20260905184517 74 281 0.0 0.9 0.00 0.00 0.00 60 1014.6
20260905183516 74 294 0.0 1.7 0.00 0.00 0.00 59 1014.6
20260905182516 75 264 0.0 0.9 0.00 0.00 0.00 57 1014.7
20260905181516 75 279 0.0 0.9 0.00 0.00 0.00 57 1014.8
20260905180516 75 249 0.0 0.0 0.00 0.00 0.00 56 1014.8
20260905175516 75 271 0.0 0.9 0.00 0.00 0.00 55 1014.8
20260905174516 76 275 0.0 0.0 0.00 0.00 0.00 53 1014.8
20260905173516 77 276 0.0 0.0 0.00 0.00 0.00 52 1014.8
20260905172517 77 333 0.0 0.0 0.00 0.00 0.00 50 1014.8
20260905171516 78 5 0.0 0.0 0.00 0.00 0.00 49 1014.7
20260905170516 79 346 0.0 0.0 0.00 0.00 0.00 48 1014.6
20260905165516 79 29 0.0 0.9 0.00 0.00 0.00 47 1014.6
20260905164536 80 24 0.0 0.9 0.00 0.00 0.00 47 1014.4
20260905163536 80 0 0.0 0.9 0.00 0.00 0.00 46 1014.4
20260905162518 81 44 0.0 0.9 0.00 0.00 0.00 44 1014.3
20260905161516 82 39 0.0 0.9 0.00 0.00 0.00 42 1014.1
20260905160536 83 58 0.0 1.7 0.00 0.00 0.00 41 1014.1
20260905155536 83 50 0.9 2.6 0.00 0.00 0.00 40 1013.9
20260905154516 84 44 0.9 2.6 0.00 0.00 0.00 39 1013.8
20260905153517 85 44 0.9 2.6 0.00 0.00 0.00 37 1013.8
20260905152536 85 50 0.9 4.3 0.00 0.00 0.00 37 1013.7
20260905151536 86 54 0.9 3.5 0.00 0.00 0.00 36 1013.7
20260905150516 86 54 1.7 3.5 0.00 0.00 0.00 35 1013.7
20260905145517 87 46 0.9 3.5 0.00 0.00 0.00 34 1013.7
20260905144516 87 47 0.9 2.6 0.00 0.00 0.00 33 1013.8
20260905143516 88 312 1.7 6.1 0.00 0.00 0.00 32 1013.8
20260905142516 90 321 1.7 5.2 0.00 0.00 0.00 30 1013.8
20260905141516 91 335 1.7 5.2 0.00 0.00 0.00 30 1013.8
20260905135516 93 1 0.9 2.6 0.00 0.00 0.00 28 1013.8
20260905134516 94 304 1.7 3.5 0.00 0.00 0.00 28 1013.8
20260905133516 94 319 1.7 4.3 0.00 0.00 0.00 27 1013.9
20260905132516 94 357 1.7 5.2 0.00 0.00 0.00 27 1013.9
20260905131516 95 359 2.6 5.2 0.00 0.00 0.00 27 1013.9
20260905130524 95 0 1.7 3.5 0.00 0.00 0.00 27 1013.9
20260905125535 95 0 1.7 5.2 0.00 0.00 0.00 27 1014.0
20260905124518 95 0 1.7 4.3 0.00 0.00 0.00 27 1014.0
20260905123546 94 0 0.9 2.6 0.00 0.00 0.00 28 1014.0
20260905122516 93 55 1.7 4.3 0.00 0.00 0.00 28 1014.1
20260905121516 93 30 0.9 3.5 0.00 0.00 0.00 27 1014.1
20260905120516 94 332 1.7 3.5 0.00 0.00 0.00 26 1014.1
20260905115527 94 0 0.0 1.7 0.00 0.00 0.00 27 1014.1